When you browse on this site, cookies collect data to enhance your experience and personalize the content and advertising you see.
Visit our Privacy Policy to learn more. By continuing to use the site, you agree to this use of cookies and data.
  • In Switzerland
  • List of Countries
  • For 7 days
  • Water Temperature
  • Weather Map
  • Weather Widgets
  • user-avatar
    Login

    Hourly Weather Rio de Janeiro

    Today, 27 May, Wednesday

    Time Temperature Precipitation Wind Pressure Humidity
    00:00 +17°C° 0 mm 2 mps 757 mmHg 68%
    01:00 +17°C° 0 mm 2 mps 758 mmHg 69%
    02:00 +17°C° 0 mm 2 mps 758 mmHg 70%
    03:00 +17°C° 0 mm 2 mps 758 mmHg 70%
    04:00 +16°C° 0 mm 2 mps 758 mmHg 70%
    05:00 +16°C° 0 mm 2 mps 758 mmHg 71%
    06:00 +16°C° 0 mm 2 mps 758 mmHg 71%
    07:00 +17°C° 0 mm 2 mps 759 mmHg 66%
    08:00 +19°C° 0 mm 2 mps 759 mmHg 60%
    09:00 +20°C° 0 mm 2 mps 760 mmHg 55%
    10:00 +23°C° 0 mm 2 mps 760 mmHg 51%
    11:00 +24°C° 0 mm 3 mps 760 mmHg 48%
    12:00 +25°C° 0 mm 4 mps 760 mmHg 45%
    13:00 +25°C° 0 mm 4 mps 760 mmHg 47%
    14:00 +25°C° 0 mm 4 mps 759 mmHg 50%
    15:00 +25°C° 0 mm 5 mps 759 mmHg 53%
    16:00 +23°C° 0 mm 4 mps 760 mmHg 58%
    17:00 +22°C° 0 mm 4 mps 760 mmHg 63%
    18:00 +21°C° 0 mm 4 mps 760 mmHg 68%
    19:00 +21°C° 0 mm 4 mps 761 mmHg 69%
    20:00 +21°C° 0 mm 4 mps 761 mmHg 69%
    21:00 +21°C° 0 mm 3 mps 762 mmHg 70%
    22:00 +20°C° 0.1 mm 3 mps 762 mmHg 72%
    23:00 +20°C° 0.1 mm 3 mps 762 mmHg 73%

    Tomorrow, 28 May, Thursday

    Time Temperature Precipitation Wind Pressure Humidity
    00:00 +20°C° 0.1 mm 3 mps 762 mmHg 75%
    01:00 +20°C° 0.1 mm 3 mps 761 mmHg 76%
    02:00 +19°C° 0.1 mm 3 mps 761 mmHg 76%
    03:00 +19°C° 0.1 mm 3 mps 761 mmHg 77%
    04:00 +19°C° 0 mm 3 mps 761 mmHg 75%
    05:00 +19°C° 0 mm 3 mps 762 mmHg 74%
    06:00 +19°C° 0 mm 3 mps 762 mmHg 73%
    07:00 +20°C° 0 mm 3 mps 762 mmHg 69%
    08:00 +21°C° 0 mm 2 mps 763 mmHg 65%
    09:00 +21°C° 0 mm 2 mps 763 mmHg 61%
    10:00 +23°C° 0 mm 2 mps 763 mmHg 57%
    11:00 +24°C° 0 mm 2 mps 762 mmHg 53%
    12:00 +25°C° 0 mm 2 mps 762 mmHg 50%
    13:00 +25°C° 0 mm 2 mps 762 mmHg 50%
    14:00 +25°C° 0 mm 2 mps 762 mmHg 50%
    15:00 +26°C° 0 mm 2 mps 761 mmHg 50%
    16:00 +24°C° 0 mm 2 mps 762 mmHg 57%
    17:00 +23°C° 0 mm 2 mps 762 mmHg 64%
    18:00 +20°C° 0 mm 2 mps 762 mmHg 70%
    19:00 +21°C° 0 mm 1 mps 763 mmHg 72%
    20:00 +20°C° 0 mm 1 mps 763 mmHg 74%
    21:00 +20°C° 0 mm 1 mps 763 mmHg 76%
    22:00 +20°C° 0 mm 1 mps 763 mmHg 77%
    23:00 +19°C° 0 mm 1 mps 763 mmHg 79%

    Day after tomorrow, 29 May, Friday

    Time Temperature Precipitation Wind Pressure Humidity
    00:00 +19°C° 0 mm 1 mps 763 mmHg 80%
    01:00 +19°C° 0 mm 1 mps 763 mmHg 80%
    02:00 +18°C° 0 mm 1 mps 763 mmHg 80%
    03:00 +17°C° 0 mm 2 mps 762 mmHg 81%
    04:00 +18°C° 0 mm 1 mps 762 mmHg 80%
    05:00 +18°C° 0 mm 1 mps 763 mmHg 80%
    06:00 +16°C° 0 mm 1 mps 763 mmHg 79%
    07:00 +19°C° 0 mm 1 mps 763 mmHg 74%
    08:00 +20°C° 0 mm 1 mps 763 mmHg 68%
    09:00 +22°C° 0 mm 1 mps 763 mmHg 63%
    10:00 +23°C° 0 mm 1 mps 762 mmHg 58%
    11:00 +25°C° 0 mm 1 mps 762 mmHg 53%
    12:00 +26°C° 0 mm 1 mps 762 mmHg 48%
    13:00 +27°C° 0 mm 2 mps 761 mmHg 49%
    14:00 +27°C° 0 mm 2 mps 761 mmHg 49%
    15:00 +27°C° 0 mm 3 mps 760 mmHg 50%
    16:00 +26°C° 0 mm 3 mps 760 mmHg 57%
    17:00 +24°C° 0 mm 3 mps 760 mmHg 64%
    18:00 +22°C° 0 mm 3 mps 761 mmHg 71%
    19:00 +21°C° 0 mm 3 mps 761 mmHg 73%
    20:00 +20°C° 0 mm 3 mps 761 mmHg 75%
    21:00 +20°C° 0 mm 2 mps 762 mmHg 77%
    22:00 +19°C° 0 mm 2 mps 761 mmHg 76%
    23:00 +19°C° 0 mm 2 mps 761 mmHg 75%

    30 May, Saturday

    Time Temperature Precipitation Wind Pressure Humidity
    00:00 +18°C° 0 mm 2 mps 761 mmHg 74%
    01:00 +18°C° 0 mm 2 mps 761 mmHg 74%
    02:00 +17°C° 0 mm 2 mps 760 mmHg 74%
    03:00 +18°C° 0 mm 1 mps 760 mmHg 74%
    04:00 +18°C° 0 mm 1 mps 760 mmHg 76%
    05:00 +18°C° 0 mm 1 mps 760 mmHg 77%
    06:00 +16°C° 0 mm 1 mps 760 mmHg 78%
    07:00 +19°C° 0 mm 1 mps 761 mmHg 73%
    08:00 +20°C° 0 mm 1 mps 761 mmHg 68%
    09:00 +22°C° 0 mm 1 mps 761 mmHg 63%
    10:00 +24°C° 0 mm 1 mps 761 mmHg 57%
    11:00 +26°C° 0 mm 1 mps 761 mmHg 51%
    12:00 +28°C° 0 mm 1 mps 760 mmHg 46%
    13:00 +28°C° 0 mm 1 mps 760 mmHg 45%
    14:00 +28°C° 0 mm 1 mps 759 mmHg 44%
    15:00 +29°C° 0 mm 1 mps 758 mmHg 44%
    16:00 +27°C° 0 mm 1 mps 759 mmHg 51%
    17:00 +25°C° 0 mm 1 mps 759 mmHg 57%
    18:00 +23°C° 0 mm 1 mps 759 mmHg 64%
    19:00 +23°C° 0 mm 1 mps 759 mmHg 66%
    20:00 +22°C° 0 mm 1 mps 759 mmHg 67%
    21:00 +22°C° 0 mm 1 mps 760 mmHg 69%
    22:00 +21°C° 0 mm 1 mps 759 mmHg 70%
    23:00 +21°C° 0 mm 1 mps 759 mmHg 71%

    31 May, Sunday

    Time Temperature Precipitation Wind Pressure Humidity
    00:00 +20°C° 0 mm 1 mps 759 mmHg 72%
    01:00 +20°C° 0 mm 1 mps 759 mmHg 73%
    02:00 +20°C° 0 mm 1 mps 759 mmHg 74%
    03:00 +19°C° 0 mm 1 mps 758 mmHg 76%
    04:00 +19°C° 0 mm 1 mps 759 mmHg 76%
    05:00 +18°C° 0 mm 2 mps 759 mmHg 77%
    06:00 +18°C° 0 mm 2 mps 759 mmHg 78%
    07:00 +19°C° 0 mm 2 mps 759 mmHg 72%
    08:00 +21°C° 0 mm 2 mps 759 mmHg 66%
    09:00 +23°C° 0 mm 2 mps 759 mmHg 60%
    10:00 +25°C° 0 mm 2 mps 759 mmHg 54%
    11:00 +27°C° 0 mm 1 mps 759 mmHg 48%
    12:00 +29°C° 0 mm 1 mps 758 mmHg 41%
    13:00 +29°C° 0 mm 1 mps 758 mmHg 41%
    14:00 +29°C° 0 mm 2 mps 757 mmHg 40%
    15:00 +29°C° 0 mm 2 mps 757 mmHg 40%
    16:00 +27°C° 0 mm 2 mps 757 mmHg 46%
    17:00 +26°C° 0 mm 1 mps 758 mmHg 53%
    18:00 +24°C° 0 mm 1 mps 758 mmHg 59%
    19:00 +23°C° 0 mm 1 mps 758 mmHg 61%
    20:00 +22°C° 0 mm 1 mps 759 mmHg 64%
    21:00 +22°C° 0 mm 1 mps 759 mmHg 66%
    22:00 +21°C° 0 mm 1 mps 759 mmHg 66%
    23:00 +21°C° 0 mm 1 mps 759 mmHg 67%

    1 June, Monday

    Time Temperature Precipitation Wind Pressure Humidity
    00:00 +21°C° 0 mm 1 mps 759 mmHg 68%
    01:00 +20°C° 0 mm 1 mps 758 mmHg 68%
    02:00 +20°C° 0 mm 1 mps 758 mmHg 68%
    03:00 +20°C° 0 mm 1 mps 758 mmHg 68%
    04:00 +20°C° 0 mm 1 mps 758 mmHg 68%
    05:00 +19°C° 0 mm 1 mps 759 mmHg 68%
    06:00 +19°C° 0 mm 1 mps 759 mmHg 68%
    07:00 +21°C° 0 mm 1 mps 759 mmHg 65%
    08:00 +22°C° 0 mm 1 mps 760 mmHg 61%
    09:00 +23°C° 0 mm 1 mps 760 mmHg 58%
    10:00 +25°C° 0 mm 2 mps 760 mmHg 54%
    11:00 +26°C° 0 mm 2 mps 760 mmHg 51%
    12:00 +28°C° 0 mm 2 mps 760 mmHg 48%
    13:00 +28°C° 0 mm 2 mps 760 mmHg 51%
    14:00 +27°C° 0 mm 2 mps 760 mmHg 54%
    15:00 +27°C° 0 mm 3 mps 759 mmHg 56%
    16:00 +26°C° 0 mm 2 mps 759 mmHg 65%
    17:00 +24°C° 0 mm 2 mps 760 mmHg 73%
    18:00 +23°C° 0 mm 2 mps 760 mmHg 81%
    19:00 +23°C° 0.1 mm 2 mps 760 mmHg 82%
    20:00 +23°C° 0.1 mm 2 mps 760 mmHg 83%
    21:00 +23°C° 0.1 mm 2 mps 761 mmHg 83%
    22:00 +21°C° 0.1 mm 2 mps 760 mmHg 84%
    23:00 +21°C° 0.1 mm 2 mps 760 mmHg 86%
    Show more